Location: Antioch Baptist Church
(32.6696°N, 85.7327°W)
Time: 12:07:15
(UTC+00:00)

Cosmos 2181 Rocket - Pass Details

Date: 14 July 2020
Orbit: 951 x 1015 km, 82.9° (Epoch: 08 August)

Event Time Altitude Azimuth Distance (km) Brightness Sun altitude
Rises 02:49:39 0° 350° (N) 3,687 7.9 -20.9°
Reaches altitude 10° 02:52:12 10° 348° (NNW) 2,726 7.1 -21.3°
Maximum altitude 02:58:22 66° 268° (W) 1,045 4.2 -22.1°
Enters shadow 03:01:55 26° 192° (SSW) 1,787 5.1 -22.7°
